Terminal Aerodrome Forecast
Issued by NWS

Home | Current Version | Previous Version | Text Only | Print | Product List | Glossary On
Versions: 1 2 3 4 5 6 7 8 9 10 11 12 13 14 15 16 17 18 19 20 21 22 23 24 25 26 27 28 29 30 31
599
FTAK31 PAFA 060529
TAFASC
TAF
PASC 060529Z 0606/0706 06008KT 3SM BR OVC009
     FM060800 06008KT 1 1/2SM BR OVC005
     FM061100 06010KT 3/4SM BR OVC004
     FM061800 05010KT 3SM BR OVC005=

USA.gov is the U.S. government's official web portal to all federal, state and local government web resources and services.